Time,TemperatureF,DewpointF,PressureIn,WindDirection,WindDirectionDegrees,WindSpeedMPH,WindSpeedGustMPH,Humidity,HourlyPrecipIn,Conditions,Clouds,dailyrainin,SoftwareType,DateUTC
2013-03-02 00:02:00,26.0,25.0,29.83,SW,227,0.0,6.0,95,0.01,,,-99.99,,2013-03-02 05:02:00,
2013-03-02 00:12:00,26.0,25.0,29.83,SW,227,0.0,6.0,95,0.01,,,-99.99,,2013-03-02 05:12:00,
2013-03-02 00:22:00,26.0,25.0,29.83,SW,224,0.0,6.0,95,0.01,,,-99.99,,2013-03-02 05:22:00,
2013-03-02 00:32:00,26.0,25.0,29.83,SW,222,0.0,0.0,95,0.00,,,-99.99,,2013-03-02 05:32:00,
2013-03-02 00:42:00,26.0,25.0,29.83,SW,222,0.0,0.0,95,0.00,,,-99.99,,2013-03-02 05:42:00,
2013-03-02 00:52:00,26.0,25.0,29.83,SW,222,0.0,0.0,95,0.00,,,-99.99,,2013-03-02 05:52:00,
2013-03-02 01:01:00,26.0,25.0,29.83,SW,222,0.0,0.0,95,0.00,,,-99.99,,2013-03-02 06:01:00,
2013-03-02 01:11:00,26.0,25.0,29.83,SW,222,0.0,0.0,95,0.00,,,-99.99,,2013-03-02 06:11:00,
2013-03-02 01:22:00,25.0,24.0,29.83,SW,214,1.0,9.0,95,0.00,,,-99.99,,2013-03-02 06:22:00,
2013-03-02 01:32:00,25.0,24.0,29.83,SSW,212,0.0,6.0,95,0.00,,,-99.99,,2013-03-02 06:32:00,
2013-03-02 01:42:00,25.0,24.0,29.83,SSW,212,0.0,6.0,95,0.00,,,-99.99,,2013-03-02 06:42:00,
2013-03-02 01:52:00,25.0,24.0,29.83,SW,229,0.0,6.0,95,0.00,,,-99.99,,2013-03-02 06:52:00,
2013-03-02 02:01:00,25.0,24.0,29.83,SW,232,0.0,6.0,95,0.00,,,-99.99,,2013-03-02 07:01:00,
2013-03-02 02:11:00,25.0,24.0,29.83,SSW,198,0.0,6.0,94,0.00,,,-99.99,,2013-03-02 07:11:00,
2013-03-02 02:21:00,25.0,24.0,29.83,SSW,198,0.0,6.0,94,0.00,,,-99.99,,2013-03-02 07:21:00,
2013-03-02 02:32:00,25.0,24.0,29.83,SSW,210,1.0,11.0,94,0.00,,,-99.99,,2013-03-02 07:32:00,
2013-03-02 02:42:00,25.0,24.0,29.83,SSW,210,1.0,11.0,94,0.00,,,-99.99,,2013-03-02 07:42:00,
2013-03-02 02:52:00,24.0,23.0,29.83,SSW,210,3.0,11.0,94,0.00,,,-99.99,,2013-03-02 07:52:00,
2013-03-02 03:01:00,25.0,24.0,29.83,SE,132,1.0,8.0,94,0.00,,,-99.99,,2013-03-02 08:01:00,
2013-03-02 03:11:00,25.0,24.0,29.83,SE,132,1.0,8.0,94,0.00,,,-99.99,,2013-03-02 08:11:00,
2013-03-02 03:22:00,24.0,23.0,29.83,SW,216,2.0,9.0,94,0.00,,,-99.99,,2013-03-02 08:22:00,
2013-03-02 03:32:00,24.0,23.0,29.83,ESE,104,2.0,11.0,94,0.00,,,-99.99,,2013-03-02 08:32:00,
2013-03-02 03:42:00,24.0,23.0,29.83,ESE,104,2.0,11.0,94,0.00,,,-99.99,,2013-03-02 08:42:00,
2013-03-02 03:52:00,24.0,23.0,29.81,SSW,206,4.0,10.0,94,0.00,,,-99.99,,2013-03-02 08:52:00,
2013-03-02 04:02:00,24.0,23.0,29.81,South,190,2.0,10.0,94,0.00,,,-99.99,,2013-03-02 09:02:00,
2013-03-02 04:11:00,24.0,23.0,29.81,SSE,168,4.0,9.0,94,0.00,,,-99.99,,2013-03-02 09:11:00,
2013-03-02 04:21:00,24.0,23.0,29.81,SSE,168,4.0,9.0,94,0.00,,,-99.99,,2013-03-02 09:21:00,
2013-03-02 04:32:00,24.0,23.0,29.81,South,181,0.0,10.0,94,0.00,,,-99.99,,2013-03-02 09:32:00,
2013-03-02 04:42:00,24.0,23.0,29.81,South,181,0.0,10.0,94,0.00,,,-99.99,,2013-03-02 09:42:00,
2013-03-02 04:51:00,23.0,22.0,29.81,South,169,1.0,10.0,94,0.00,,,-99.99,,2013-03-02 09:51:00,
2013-03-02 05:01:00,23.0,22.0,29.81,ENE,58,0.0,9.0,94,0.00,,,-99.99,,2013-03-02 10:01:00,
2013-03-02 05:16:00,23.0,22.0,29.81,ENE,58,0.0,9.0,94,0.00,,,-99.99,,2013-03-02 10:16:00,
2013-03-02 05:22:00,23.0,22.0,29.81,SE,140,3.0,10.0,94,0.00,,,-99.99,,2013-03-02 10:22:00,
2013-03-02 05:32:00,23.0,22.0,29.81,SSW,205,1.0,9.0,94,0.00,,,-99.99,,2013-03-02 10:32:00,
2013-03-02 05:43:00,23.0,22.0,29.81,SSW,205,1.0,9.0,94,0.00,,,-99.99,,2013-03-02 10:43:00,
2013-03-02 05:52:00,23.0,22.0,29.81,SSW,205,1.0,9.0,94,0.00,,,-99.99,,2013-03-02 10:52:00,
2013-03-02 06:01:00,23.0,22.0,29.81,ENE,75,0.0,7.0,94,0.00,,,-99.99,,2013-03-02 11:01:00,
2013-03-02 06:11:00,23.0,22.0,29.81,ENE,75,0.0,7.0,94,0.00,,,-99.99,,2013-03-02 11:11:00,
2013-03-02 06:22:00,23.0,22.0,29.81,ENE,75,0.0,7.0,94,0.00,,,-99.99,,2013-03-02 11:22:00,
2013-03-02 06:32:00,23.0,22.0,29.81,NE,54,2.0,11.0,94,0.00,,,-99.99,,2013-03-02 11:32:00,
2013-03-02 06:42:00,23.0,22.0,29.81,NE,54,2.0,11.0,94,0.00,,,-99.99,,2013-03-02 11:42:00,
2013-03-02 06:52:00,23.0,22.0,29.81,WSW,251,0.0,3.0,94,0.00,,,-99.99,,2013-03-02 11:52:00,
2013-03-02 07:02:00,23.0,22.0,29.81,East,101,0.0,3.0,94,0.00,,,-99.99,,2013-03-02 12:02:00,
2013-03-02 07:11:00,23.0,22.0,29.81,East,101,0.0,3.0,94,0.00,,,-99.99,,2013-03-02 12:11:00,
2013-03-02 07:22:00,23.0,22.0,29.81,WSW,243,0.0,0.0,95,0.00,,,-99.99,,2013-03-02 12:22:00,
2013-03-02 07:33:00,23.0,22.0,29.81,WSW,243,0.0,0.0,95,0.00,,,-99.99,,2013-03-02 12:33:00,
2013-03-02 07:43:00,23.0,22.0,29.81,WSW,243,0.0,0.0,95,0.00,,,-99.99,,2013-03-02 12:43:00,
2013-03-02 07:53:00,23.0,22.0,29.81,WSW,243,0.0,0.0,95,0.00,,,-99.99,,2013-03-02 12:53:00,
2013-03-02 08:01:00,24.0,23.0,29.81,WSW,243,0.0,0.0,95,0.00,,,-99.99,,2013-03-02 13:01:00,
2013-03-02 08:11:00,24.0,23.0,29.81,WSW,243,0.0,0.0,95,0.00,,,-99.99,,2013-03-02 13:11:00,
2013-03-02 08:22:00,24.0,23.0,29.81,WSW,237,0.0,7.0,95,0.00,,,-99.99,,2013-03-02 13:22:00,
2013-03-02 08:32:00,24.0,23.0,29.81,WSW,244,0.0,1.0,95,0.00,,,-99.99,,2013-03-02 13:32:00,
2013-03-02 08:42:00,24.0,23.0,29.81,WSW,244,0.0,1.0,95,0.00,,,-99.99,,2013-03-02 13:42:00,
2013-03-02 08:52:00,25.0,24.0,29.81,NNE,32,0.0,9.0,94,0.00,,,-99.99,,2013-03-02 13:52:00,
2013-03-02 09:01:00,25.0,24.0,29.81,WSW,252,0.0,1.0,94,0.00,,,-99.99,,2013-03-02 14:01:00,
2013-03-02 09:11:00,25.0,24.0,29.81,WSW,252,0.0,1.0,94,0.00,,,-99.99,,2013-03-02 14:11:00,
2013-03-02 09:22:00,26.0,24.0,29.81,SSW,202,1.0,9.0,93,0.00,,,-99.99,,2013-03-02 14:22:00,
2013-03-02 09:32:00,26.0,24.0,29.81,WSW,247,0.0,7.0,92,0.00,,,-99.99,,2013-03-02 14:32:00,
2013-03-02 09:42:00,26.0,24.0,29.81,WSW,247,0.0,7.0,92,0.00,,,-99.99,,2013-03-02 14:42:00,
2013-03-02 09:52:00,26.0,24.0,29.80,South,175,5.0,11.0,91,0.00,,,-99.99,,2013-03-02 14:52:00,
2013-03-02 10:02:00,26.0,24.0,29.80,NNE,21,0.0,8.0,91,0.00,,,-99.99,,2013-03-02 15:02:00,
2013-03-02 10:11:00,26.0,24.0,29.80,NNE,21,0.0,8.0,91,0.00,,,-99.99,,2013-03-02 15:11:00,
2013-03-02 10:21:00,26.0,24.0,29.80,ESE,111,0.0,9.0,92,0.00,,,-99.99,,2013-03-02 15:21:00,
2013-03-02 10:32:00,26.0,24.0,29.80,East,92,3.0,9.0,92,0.05,,,-99.99,,2013-03-02 15:32:00,
2013-03-02 10:42:00,26.0,24.0,29.80,East,92,3.0,9.0,92,0.05,,,-99.99,,2013-03-02 15:42:00,
2013-03-02 10:52:00,26.0,24.0,29.80,SSW,199,2.0,11.0,93,0.05,,,-99.99,,2013-03-02 15:52:00,
2013-03-02 11:02:00,26.0,24.0,29.80,ESE,109,5.0,12.0,93,0.05,,,-99.99,,2013-03-02 16:02:00,
2013-03-02 11:11:00,26.0,24.0,29.80,ESE,109,5.0,12.0,93,0.05,,,-99.99,,2013-03-02 16:11:00,
2013-03-02 11:21:00,26.0,24.0,29.79,SSE,147,3.0,10.0,93,0.05,,,-99.99,,2013-03-02 16:21:00,
2013-03-02 11:32:00,27.0,25.0,29.79,SE,124,0.0,9.0,93,0.00,,,-99.99,,2013-03-02 16:32:00,
2013-03-02 11:42:00,27.0,25.0,29.79,SE,124,0.0,9.0,93,0.00,,,-99.99,,2013-03-02 16:42:00,
2013-03-02 11:52:00,28.0,26.0,29.79,ESE,116,2.0,14.0,91,0.00,,,-99.99,,2013-03-02 16:52:00,
2013-03-02 12:01:00,27.0,25.0,29.79,SSE,147,6.0,14.0,92,0.00,,,-99.99,,2013-03-02 17:01:00,
2013-03-02 12:11:00,27.0,25.0,29.79,SSE,147,6.0,13.0,91,0.00,,,-99.99,,2013-03-02 17:11:00,
2013-03-02 12:21:00,27.0,25.0,29.79,SSE,147,6.0,13.0,91,0.00,,,-99.99,,2013-03-02 17:21:00,
2013-03-02 12:32:00,27.0,24.0,29.79,SE,125,4.0,12.0,90,0.01,,,-99.99,,2013-03-02 17:32:00,
2013-03-02 12:42:00,27.0,24.0,29.79,SE,125,4.0,12.0,90,0.01,,,-99.99,,2013-03-02 17:42:00,
2013-03-02 12:52:00,27.0,24.0,29.79,East,98,4.0,10.0,90,0.01,,,-99.99,,2013-03-02 17:52:00,
2013-03-02 13:02:00,28.0,25.0,29.79,ESE,121,4.0,12.0,89,0.01,,,-99.99,,2013-03-02 18:02:00,
2013-03-02 13:11:00,28.0,25.0,29.79,ESE,121,4.0,12.0,89,0.01,,,-99.99,,2013-03-02 18:11:00,
2013-03-02 13:22:00,27.0,24.0,29.79,SSE,153,5.0,12.0,89,0.01,,,-99.99,,2013-03-02 18:22:00,
2013-03-02 13:32:00,27.0,24.0,29.78,SSE,154,3.0,13.0,87,0.00,,,-99.99,,2013-03-02 18:32:00,
2013-03-02 13:42:00,27.0,24.0,29.78,SSE,154,3.0,13.0,87,0.00,,,-99.99,,2013-03-02 18:42:00,
2013-03-02 13:52:00,27.0,24.0,29.78,SE,126,2.0,11.0,87,0.00,,,-99.99,,2013-03-02 18:52:00,
2013-03-02 14:02:00,27.0,24.0,29.78,SE,126,2.0,11.0,87,0.00,,,-99.99,,2013-03-02 19:02:00,
2013-03-02 14:11:00,27.0,24.0,29.78,SE,126,2.0,11.0,87,0.00,,,-99.99,,2013-03-02 19:11:00,
2013-03-02 14:22:00,27.0,24.0,29.78,SE,130,3.0,13.0,88,0.00,,,-99.99,,2013-03-02 19:22:00,
2013-03-02 14:32:00,27.0,24.0,29.78,SW,220,5.0,12.0,87,0.02,,,-99.99,,2013-03-02 19:32:00,
2013-03-02 14:43:00,27.0,24.0,29.78,SW,220,5.0,12.0,87,0.02,,,-99.99,,2013-03-02 19:43:00,
2013-03-02 14:52:00,27.0,24.0,29.78,SE,134,4.0,12.0,87,0.02,,,-99.99,,2013-03-02 19:52:00,
2013-03-02 15:01:00,27.0,24.0,29.78,ESE,110,3.0,11.0,88,0.02,,,-99.99,,2013-03-02 20:01:00,
2013-03-02 15:11:00,27.0,24.0,29.78,ESE,110,3.0,11.0,88,0.02,,,-99.99,,2013-03-02 20:11:00,
2013-03-02 15:22:00,26.0,23.0,29.78,SE,129,5.0,10.0,88,0.02,,,-99.99,,2013-03-02 20:22:00,
2013-03-02 15:32:00,26.0,23.0,29.78,SE,146,4.0,12.0,89,0.00,,,-99.99,,2013-03-02 20:32:00,
2013-03-02 15:42:00,26.0,23.0,29.78,SE,146,4.0,12.0,89,0.00,,,-99.99,,2013-03-02 20:42:00,
2013-03-02 15:53:00,27.0,24.0,29.78,SSE,157,2.0,16.0,90,0.00,,,-99.99,,2013-03-02 20:53:00,
2013-03-02 16:02:00,27.0,24.0,29.78,South,183,3.0,13.0,89,0.00,,,-99.99,,2013-03-02 21:02:00,
2013-03-02 16:11:00,27.0,24.0,29.78,South,183,3.0,13.0,89,0.00,,,-99.99,,2013-03-02 21:11:00,
2013-03-02 16:22:00,27.0,24.0,29.78,NE,35,0.0,7.0,90,0.00,,,-99.99,,2013-03-02 21:22:00,
2013-03-02 16:32:00,26.0,24.0,29.78,SE,144,2.0,8.0,91,0.03,,,-99.99,,2013-03-02 21:32:00,
2013-03-02 16:42:00,26.0,24.0,29.78,SE,144,2.0,8.0,91,0.03,,,-99.99,,2013-03-02 21:42:00,
2013-03-02 16:52:00,27.0,25.0,29.78,SSE,168,2.0,7.0,91,0.03,,,-99.99,,2013-03-02 21:52:00,
2013-03-02 17:02:00,27.0,25.0,29.78,SSW,198,1.0,10.0,91,0.03,,,-99.99,,2013-03-02 22:02:00,
2013-03-02 17:11:00,27.0,25.0,29.78,SSW,198,1.0,10.0,91,0.03,,,-99.99,,2013-03-02 22:11:00,
2013-03-02 17:22:00,26.0,24.0,29.78,SSW,200,3.0,12.0,91,0.03,,,-99.99,,2013-03-02 22:22:00,
2013-03-02 17:32:00,26.0,24.0,29.78,SSW,208,1.0,9.0,92,0.00,,,-99.99,,2013-03-02 22:32:00,
2013-03-02 17:42:00,26.0,24.0,29.78,SSW,208,1.0,9.0,92,0.00,,,-99.99,,2013-03-02 22:42:00,
2013-03-02 17:51:00,26.0,24.0,29.78,SSW,199,2.0,8.0,92,0.00,,,-99.99,,2013-03-02 22:51:00,
2013-03-02 18:01:00,26.0,24.0,29.79,ESE,102,1.0,7.0,92,0.00,,,-99.99,,2013-03-02 23:01:00,
2013-03-02 18:11:00,26.0,24.0,29.79,SSE,160,4.0,11.0,93,0.00,,,-99.99,,2013-03-02 23:11:00,
2013-03-02 18:21:00,26.0,24.0,29.79,SSE,160,4.0,11.0,93,0.00,,,-99.99,,2013-03-02 23:21:00,
2013-03-02 18:32:00,26.0,24.0,29.80,South,175,4.0,11.0,93,0.00,,,-99.99,,2013-03-02 23:32:00,
2013-03-02 18:42:00,26.0,24.0,29.80,South,175,4.0,11.0,93,0.00,,,-99.99,,2013-03-02 23:42:00,
2013-03-02 18:52:00,25.0,23.0,29.80,SW,218,2.0,10.0,93,0.00,,,-99.99,,2013-03-02 23:52:00,
2013-03-02 19:02:00,25.0,23.0,29.80,SSW,201,1.0,11.0,93,0.00,,,-99.99,,2013-03-03 00:02:00,
2013-03-02 19:11:00,25.0,23.0,29.80,SSW,201,1.0,11.0,93,0.00,,,-99.99,,2013-03-03 00:11:00,
2013-03-02 19:22:00,25.0,23.0,29.81,SE,136,2.0,12.0,93,0.00,,,-99.99,,2013-03-03 00:22:00,
2013-03-02 19:32:00,25.0,23.0,29.81,SSE,147,5.0,11.0,93,0.00,,,-99.99,,2013-03-03 00:32:00,
2013-03-02 19:42:00,25.0,23.0,29.81,SSE,147,5.0,11.0,93,0.00,,,-99.99,,2013-03-03 00:42:00,
2013-03-02 19:52:00,25.0,23.0,29.81,SE,136,5.0,14.0,93,0.00,,,-99.99,,2013-03-03 00:52:00,
2013-03-02 20:01:00,25.0,23.0,29.81,SE,136,5.0,14.0,93,0.00,,,-99.99,,2013-03-03 01:01:00,
2013-03-02 20:11:00,25.0,23.0,29.81,SE,136,5.0,14.0,93,0.00,,,-99.99,,2013-03-03 01:11:00,
2013-03-02 20:21:00,24.0,22.0,29.81,ESE,111,3.0,11.0,93,0.00,,,-99.99,,2013-03-03 01:21:00,
2013-03-02 20:32:00,24.0,22.0,29.81,SE,126,3.0,10.0,93,0.00,,,-99.99,,2013-03-03 01:32:00,
2013-03-02 20:42:00,24.0,22.0,29.81,SE,126,3.0,10.0,93,0.00,,,-99.99,,2013-03-03 01:42:00,
2013-03-02 20:52:00,24.0,22.0,29.83,SE,124,4.0,11.0,93,0.00,,,-99.99,,2013-03-03 01:52:00,
2013-03-02 21:01:00,23.0,22.0,29.83,South,176,4.0,11.0,94,0.00,,,-99.99,,2013-03-03 02:01:00,
2013-03-02 21:11:00,23.0,22.0,29.83,ESE,121,2.0,12.0,94,0.00,,,-99.99,,2013-03-03 02:11:00,
2013-03-02 21:21:00,23.0,22.0,29.83,ESE,121,2.0,12.0,94,0.00,,,-99.99,,2013-03-03 02:21:00,
2013-03-02 21:32:00,23.0,22.0,29.83,South,181,3.0,12.0,94,0.00,,,-99.99,,2013-03-03 02:32:00,
2013-03-02 21:42:00,23.0,22.0,29.83,South,181,3.0,12.0,94,0.00,,,-99.99,,2013-03-03 02:42:00,
2013-03-02 21:52:00,23.0,22.0,29.83,SW,233,1.0,8.0,94,0.00,,,-99.99,,2013-03-03 02:52:00,
2013-03-02 22:01:00,23.0,22.0,29.83,SW,233,1.0,8.0,94,0.00,,,-99.99,,2013-03-03 03:01:00,
2013-03-02 22:11:00,23.0,22.0,29.83,SW,233,1.0,8.0,94,0.00,,,-99.99,,2013-03-03 03:11:00,
2013-03-02 22:21:00,23.0,22.0,29.83,SE,140,0.0,8.0,94,0.00,,,-99.99,,2013-03-03 03:21:00,
2013-03-02 22:32:00,23.0,22.0,29.83,WSW,240,1.0,9.0,94,0.04,,,-99.99,,2013-03-03 03:32:00,
2013-03-02 22:42:00,23.0,22.0,29.83,WSW,240,1.0,9.0,94,0.04,,,-99.99,,2013-03-03 03:42:00,
2013-03-02 22:52:00,23.0,22.0,29.83,SSE,164,1.0,11.0,94,0.04,,,-99.99,,2013-03-03 03:52:00,
2013-03-02 23:01:00,23.0,22.0,29.83,SW,216,2.0,11.0,95,0.04,,,-99.99,,2013-03-03 04:01:00,
2013-03-02 23:11:00,23.0,22.0,29.83,SW,216,2.0,11.0,95,0.04,,,-99.99,,2013-03-03 04:11:00,
2013-03-02 23:21:00,23.0,22.0,29.83,SW,232,0.0,6.0,95,0.04,,,-99.99,,2013-03-03 04:21:00,
2013-03-02 23:32:00,23.0,22.0,29.81,SSW,197,2.0,7.0,95,0.00,,,-99.99,,2013-03-03 04:32:00,
2013-03-02 23:42:00,23.0,22.0,29.81,SSW,197,2.0,7.0,95,0.00,,,-99.99,,2013-03-03 04:42:00,
2013-03-02 23:51:00,23.0,22.0,29.81,SW,216,2.0,9.0,95,0.00,,,-99.99,,2013-03-03 04:51:00,